| time (UTC) | temp F | wind direction | speed MPH | gust MPH | rain 1hr in | rain 24hr in | rain mn in | humidity % | barometer mb |
| 20260901031836 | 85 | 0 | 0.0 | 1.0 | 0.00 | 0.00 | 0.00 | 44 | 1015.9 |
| 20260901031331 | 85 | 343 | 0.0 | 1.0 | 0.00 | 0.00 | 0.00 | 44 | 1016.1 |
| 20260901030831 | 85 | 23 | 0.0 | 1.0 | 0.00 | 0.00 | 0.00 | 43 | 1016.1 |
| 20260901030327 | 86 | 12 | 1.0 | 2.0 | 0.00 | 0.00 | 0.00 | 43 | 1015.8 |
| 20260901025825 | 86 | 55 | 0.0 | 1.0 | 0.00 | 0.00 | 0.00 | 43 | 1015.8 |
| 20260901025320 | 86 | 60 | 0.0 | 1.0 | 0.00 | 0.00 | 0.00 | 42 | 1015.9 |
| 20260901024815 | 86 | 15 | 0.0 | 1.0 | 0.00 | 0.00 | 0.00 | 42 | 1015.5 |
| 20260901024314 | 87 | 353 | 0.0 | 2.0 | 0.00 | 0.00 | 0.00 | 42 | 1015.9 |
| 20260901023813 | 87 | 47 | 0.0 | 2.0 | 0.00 | 0.00 | 0.00 | 41 | 1015.7 |
| 20260901023308 | 87 | 30 | 0.0 | 2.0 | 0.00 | 0.00 | 0.00 | 41 | 1015.6 |
| 20260901022803 | 88 | 89 | 0.0 | 2.0 | 0.00 | 0.00 | 0.00 | 41 | 1015.5 |
| 20260901022259 | 88 | 38 | 0.0 | 2.0 | 0.00 | 0.00 | 0.00 | 40 | 1015.2 |
| 20260901021754 | 88 | 37 | 0.0 | 2.0 | 0.00 | 0.00 | 0.00 | 40 | 1015.1 |
| 20260901021250 | 88 | 1 | 1.0 | 2.0 | 0.00 | 0.00 | 0.00 | 40 | 1015.1 |
| 20260901020744 | 88 | 13 | 0.0 | 1.0 | 0.00 | 0.00 | 0.00 | 40 | 1015.0 |
| 20260901020240 | 89 | 21 | 0.0 | 1.0 | 0.00 | 0.00 | 0.00 | 39 | 1014.9 |
| 20260901015734 | 89 | 319 | 0.0 | 2.0 | 0.00 | 0.00 | 0.00 | 39 | 1014.9 |
| 20260901015230 | 89 | 211 | 2.0 | 2.0 | 0.00 | 0.00 | 0.00 | 38 | 1014.8 |
| 20260901014730 | 89 | 6 | 1.0 | 1.0 | 0.00 | 0.00 | 0.00 | 38 | 1014.9 |
| 20260901014226 | 90 | 118 | 0.0 | 2.0 | 0.00 | 0.00 | 0.00 | 38 | 1014.9 |
| 20260901013721 | 90 | 358 | 0.0 | 2.0 | 0.00 | 0.00 | 0.00 | 37 | 1014.8 |
| 20260901013217 | 90 | 47 | 2.0 | 3.0 | 0.00 | 0.00 | 0.00 | 37 | 1014.8 |
| 20260901012712 | 91 | 43 | 0.0 | 2.0 | 0.00 | 0.00 | 0.00 | 36 | 1014.8 |
| 20260901012213 | 91 | 36 | 0.0 | 2.0 | 0.00 | 0.00 | 0.00 | 36 | 1014.3 |
| 20260901011708 | 91 | 326 | 0.0 | 2.0 | 0.00 | 0.00 | 0.00 | 35 | 1014.6 |
| 20260901011208 | 92 | 40 | 0.0 | 2.0 | 0.00 | 0.00 | 0.00 | 35 | 1014.2 |
| 20260901010702 | 92 | 339 | 1.0 | 2.0 | 0.00 | 0.00 | 0.00 | 34 | 1014.5 |
| 20260901010157 | 93 | 352 | 0.0 | 2.0 | 0.00 | 0.00 | 0.00 | 34 | 1014.7 |
| 20260901005656 | 94 | 142 | 0.0 | 2.0 | 0.00 | 0.00 | 0.00 | 32 | 1014.5 |
| 20260901005151 | 94 | 333 | 0.0 | 1.0 | 0.00 | 0.00 | 0.00 | 32 | 1014.6 |
| 20260901004651 | 94 | 50 | 0.0 | 2.0 | 0.00 | 0.00 | 0.00 | 31 | 1014.2 |
| 20260901004146 | 95 | 9 | 0.0 | 2.0 | 0.00 | 0.00 | 0.00 | 31 | 1014.2 |
| 20260901003640 | 96 | 343 | 0.0 | 3.0 | 0.00 | 0.00 | 0.00 | 30 | 1014.1 |
| 20260901003140 | 97 | 335 | 1.0 | 1.0 | 0.00 | 0.00 | 0.00 | 29 | 1014.3 |
| 20260901002639 | 98 | 31 | 1.0 | 2.0 | 0.00 | 0.00 | 0.00 | 28 | 1014.0 |
| 20260901002134 | 98 | 13 | 0.0 | 1.0 | 0.00 | 0.00 | 0.00 | 28 | 1014.2 |
| 20260901001629 | 99 | 55 | 0.0 | 4.0 | 0.00 | 0.00 | 0.00 | 27 | 1014.2 |
| 20260901001124 | 99 | 329 | 1.0 | 4.0 | 0.00 | 0.00 | 0.00 | 27 | 1014.0 |
| 20260901000620 | 100 | 354 | 2.0 | 3.0 | 0.00 | 0.00 | 0.00 | 26 | 1014.2 |
| 20260901000115 | 101 | 6 | 0.0 | 3.0 | 0.00 | 0.00 | 0.00 | 26 | 1014.2 |
| 20260831235609 | 102 | 53 | 1.0 | 3.0 | 0.00 | 0.00 | 0.00 | 25 | 1013.9 |
| 20260831235104 | 103 | 339 | 0.0 | 2.0 | 0.00 | 0.00 | 0.00 | 25 | 1014.1 |
| 20260831234603 | 103 | 341 | 1.0 | 4.0 | 0.00 | 0.00 | 0.00 | 25 | 1014.0 |
| 20260831234059 | 103 | 219 | 0.0 | 3.0 | 0.00 | 0.00 | 0.00 | 24 | 1014.1 |
| 20260831233554 | 103 | 41 | 2.0 | 3.0 | 0.00 | 0.00 | 0.00 | 25 | 1014.0 |
| 20260831233050 | 103 | 38 | 0.0 | 5.0 | 0.00 | 0.00 | 0.00 | 25 | 1014.2 |
| 20260831232545 | 103 | 70 | 3.0 | 5.0 | 0.00 | 0.00 | 0.00 | 24 | 1014.1 |
| 20260831232041 | 103 | 265 | 3.0 | 5.0 | 0.00 | 0.00 | 0.00 | 24 | 1014.0 |
| 20260831231537 | 104 | 183 | 2.0 | 4.0 | 0.00 | 0.00 | 0.00 | 23 | 1014.1 |
| 20260831231033 | 104 | 357 | 0.0 | 3.0 | 0.00 | 0.00 | 0.00 | 24 | 1014.3 |
| 20260831230528 | 105 | 69 | 1.0 | 4.0 | 0.00 | 0.00 | 0.00 | 24 | 1013.9 |
| 20260831230023 | 104 | 282 | 0.0 | 4.0 | 0.00 | 0.00 | 0.00 | 24 | 1013.9 |
| 20260831225518 | 104 | 9 | 2.0 | 4.0 | 0.00 | 0.00 | 0.00 | 24 | 1014.0 |
| 20260831225017 | 105 | 86 | 3.0 | 4.0 | 0.00 | 0.00 | 0.00 | 23 | 1014.3 |
| 20260831224513 | 104 | 163 | 2.0 | 6.0 | 0.00 | 0.00 | 0.00 | 23 | 1014.2 |
| 20260831224008 | 104 | 108 | 3.0 | 4.0 | 0.00 | 0.00 | 0.00 | 23 | 1014.1 |
| 20260831223503 | 104 | 31 | 1.0 | 3.0 | 0.00 | 0.00 | 0.00 | 23 | 1014.1 |
| 20260831223000 | 105 | 305 | 1.0 | 4.0 | 0.00 | 0.00 | 0.00 | 23 | 1014.2 |
| 20260831222455 | 105 | 274 | 2.0 | 4.0 | 0.00 | 0.00 | 0.00 | 23 | 1014.2 |
| 20260831221954 | 105 | 44 | 0.0 | 3.0 | 0.00 | 0.00 | 0.00 | 23 | 1014.5 |
| 20260831221450 | 105 | 43 | 2.0 | 8.0 | 0.00 | 0.00 | 0.00 | 24 | 1014.3 |
| 20260831220946 | 106 | 112 | 0.0 | 4.0 | 0.00 | 0.00 | 0.00 | 23 | 1014.2 |
| 20260831220441 | 107 | 216 | 2.0 | 5.0 | 0.00 | 0.00 | 0.00 | 22 | 1014.5 |
| 20260831215936 | 106 | 13 | 2.0 | 4.0 | 0.00 | 0.00 | 0.00 | 22 | 1014.6 |
| 20260831215432 | 106 | 307 | 1.0 | 4.0 | 0.00 | 0.00 | 0.00 | 22 | 1014.3 |
| 20260831214928 | 105 | 336 | 1.0 | 6.0 | 0.00 | 0.00 | 0.00 | 23 | 1014.3 |
| 20260831214425 | 105 | 180 | 4.0 | 5.0 | 0.00 | 0.00 | 0.00 | 22 | 1014.7 |
| 20260831213921 | 106 | 70 | 2.0 | 4.0 | 0.00 | 0.00 | 0.00 | 22 | 1014.5 |
| 20260831213417 | 106 | 108 | 1.0 | 4.0 | 0.00 | 0.00 | 0.00 | 21 | 1014.9 |
| 20260831212917 | 105 | 60 | 2.0 | 6.0 | 0.00 | 0.00 | 0.00 | 21 | 1014.8 |
| 20260831212414 | 106 | 311 | 2.0 | 5.0 | 0.00 | 0.00 | 0.00 | 20 | 1014.9 |
| 20260831211913 | 106 | 228 | 3.0 | 6.0 | 0.00 | 0.00 | 0.00 | 19 | 1015.1 |
| 20260831211408 | 106 | 234 | 1.0 | 6.0 | 0.00 | 0.00 | 0.00 | 20 | 1015.1 |
| 20260831210908 | 106 | 307 | 0.0 | 4.0 | 0.00 | 0.00 | 0.00 | 21 | 1014.9 |
| 20260831210403 | 106 | 300 | 4.0 | 4.0 | 0.00 | 0.00 | 0.00 | 22 | 1015.0 |
| 20260831205859 | 105 | 59 | 1.0 | 8.0 | 0.00 | 0.00 | 0.00 | 22 | 1015.0 |
| 20260831205355 | 105 | 294 | 1.0 | 8.0 | 0.00 | 0.00 | 0.00 | 22 | 1015.0 |
| 20260831204855 | 105 | 264 | 3.0 | 6.0 | 0.00 | 0.00 | 0.00 | 22 | 1015.3 |
| 20260831204354 | 105 | 193 | 4.0 | 6.0 | 0.00 | 0.00 | 0.00 | 22 | 1015.2 |
| 20260831203853 | 105 | 8 | 2.0 | 8.0 | 0.00 | 0.00 | 0.00 | 22 | 1015.2 |
| 20260831203348 | 105 | 227 | 0.0 | 9.0 | 0.00 | 0.00 | 0.00 | 22 | 1015.2 |
| 20260831202846 | 106 | 74 | 3.0 | 4.0 | 0.00 | 0.00 | 0.00 | 22 | 1015.4 |
| 20260831202342 | 105 | 255 | 3.0 | 5.0 | 0.00 | 0.00 | 0.00 | 22 | 1015.4 |
| 20260831201841 | 105 | 223 | 5.0 | 11.0 | 0.00 | 0.00 | 0.00 | 22 | 1015.4 |
| 20260831201340 | 105 | 60 | 2.0 | 3.0 | 0.00 | 0.00 | 0.00 | 22 | 1015.4 |
| 20260831200836 | 105 | 239 | 2.0 | 9.0 | 0.00 | 0.00 | 0.00 | 23 | 1015.5 |
| 20260831200331 | 106 | 255 | 2.0 | 5.0 | 0.00 | 0.00 | 0.00 | 22 | 1015.3 |
| 20260831195826 | 106 | 155 | 2.0 | 11.0 | 0.00 | 0.00 | 0.00 | 23 | 1015.6 |
| 20260831195322 | 106 | 320 | 2.0 | 3.0 | 0.00 | 0.00 | 0.00 | 23 | 1015.6 |
| 20260831194818 | 106 | 64 | 1.0 | 4.0 | 0.00 | 0.00 | 0.00 | 23 | 1015.6 |
| 20260831194313 | 104 | 19 | 0.0 | 9.0 | 0.00 | 0.00 | 0.00 | 25 | 1015.5 |
| 20260831193811 | 105 | 223 | 3.0 | 6.0 | 0.00 | 0.00 | 0.00 | 24 | 1015.5 |
| 20260831193307 | 105 | 335 | 2.0 | 7.0 | 0.00 | 0.00 | 0.00 | 25 | 1015.5 |
| 20260831192802 | 105 | 211 | 0.0 | 6.0 | 0.00 | 0.00 | 0.00 | 25 | 1015.8 |
| 20260831192257 | 103 | 146 | 1.0 | 9.0 | 0.00 | 0.00 | 0.00 | 26 | 1015.7 |
| 20260831191753 | 104 | 138 | 5.0 | 9.0 | 0.00 | 0.00 | 0.00 | 25 | 1015.8 |
| 20260831191249 | 104 | 10 | 2.0 | 6.0 | 0.00 | 0.00 | 0.00 | 26 | 1015.6 |
| 20260831190745 | 104 | 218 | 4.0 | 6.0 | 0.00 | 0.00 | 0.00 | 26 | 1015.7 |
| 20260831190244 | 103 | 182 | 0.0 | 7.0 | 0.00 | 0.00 | 0.00 | 26 | 1015.8 |
| 20260831185744 | 104 | 329 | 2.0 | 10.0 | 0.00 | 0.00 | 0.00 | 25 | 1015.7 |
| 20260831185240 | 105 | 327 | 1.0 | 10.0 | 0.00 | 0.00 | 0.00 | 26 | 1015.6 |
| 20260831184739 | 103 | 71 | 1.0 | 6.0 | 0.00 | 0.00 | 0.00 | 28 | 1016.1 |
| 20260831184235 | 103 | 296 | 1.0 | 9.0 | 0.00 | 0.00 | 0.00 | 27 | 1016.0 |
| 20260831183730 | 103 | 177 | 3.0 | 11.0 | 0.00 | 0.00 | 0.00 | 26 | 1015.9 |
| 20260831183229 | 103 | 214 | 2.0 | 6.0 | 0.00 | 0.00 | 0.00 | 27 | 1016.1 |
| 20260831182728 | 103 | 88 | 2.0 | 4.0 | 0.00 | 0.00 | 0.00 | 28 | 1016.0 |
| 20260831182224 | 101 | 198 | 6.0 | 7.0 | 0.00 | 0.00 | 0.00 | 28 | 1016.2 |
| 20260831181724 | 101 | 256 | 6.0 | 9.0 | 0.00 | 0.00 | 0.00 | 29 | 1016.1 |
| 20260831181219 | 101 | 228 | 4.0 | 11.0 | 0.00 | 0.00 | 0.00 | 29 | 1016.1 |
| 20260831180714 | 102 | 190 | 3.0 | 6.0 | 0.00 | 0.00 | 0.00 | 28 | 1016.2 |
| 20260831180209 | 101 | 213 | 7.0 | 12.0 | 0.00 | 0.00 | 0.00 | 28 | 1016.3 |
| 20260831175708 | 101 | 212 | 8.0 | 11.0 | 0.00 | 0.00 | 0.00 | 28 | 1016.4 |
| 20260831175205 | 100 | 172 | 4.0 | 13.0 | 0.00 | 0.00 | 0.00 | 30 | 1016.4 |
| 20260831174705 | 100 | 81 | 2.0 | 15.0 | 0.00 | 0.00 | 0.00 | 30 | 1016.5 |
| 20260831174200 | 101 | 229 | 4.0 | 11.0 | 0.00 | 0.00 | 0.00 | 30 | 1016.6 |
| 20260831173659 | 100 | 170 | 2.0 | 5.0 | 0.00 | 0.00 | 0.00 | 31 | 1016.5 |
| 20260831173155 | 100 | 255 | 4.0 | 5.0 | 0.00 | 0.00 | 0.00 | 31 | 1016.6 |
| 20260831172655 | 100 | 240 | 1.0 | 5.0 | 0.00 | 0.00 | 0.00 | 32 | 1016.6 |
| 20260831172150 | 99 | 207 | 4.0 | 9.0 | 0.00 | 0.00 | 0.00 | 32 | 1016.7 |
| 20260831171644 | 99 | 216 | 6.0 | 7.0 | 0.00 | 0.00 | 0.00 | 31 | 1016.7 |
| 20260831171142 | 98 | 274 | 2.0 | 10.0 | 0.00 | 0.00 | 0.00 | 32 | 1017.1 |
| 20260831170638 | 97 | 254 | 3.0 | 4.0 | 0.00 | 0.00 | 0.00 | 33 | 1017.2 |
| 20260831170135 | 96 | 253 | 7.0 | 12.0 | 0.00 | 0.00 | 0.00 | 34 | 1017.1 |
| 20260831165630 | 97 | 169 | 2.0 | 7.0 | 0.00 | 0.00 | 0.00 | 33 | 1017.2 |
| 20260831165127 | 97 | 137 | 0.0 | 5.0 | 0.00 | 0.00 | 0.00 | 34 | 1017.1 |
| 20260831164623 | 97 | 209 | 6.0 | 6.0 | 0.00 | 0.00 | 0.00 | 33 | 1017.1 |
| 20260831164118 | 96 | 290 | 2.0 | 6.0 | 0.00 | 0.00 | 0.00 | 35 | 1017.3 |
| 20260831163613 | 96 | 217 | 2.0 | 9.0 | 0.00 | 0.00 | 0.00 | 35 | 1017.1 |
| 20260831163109 | 95 | 278 | 0.0 | 5.0 | 0.00 | 0.00 | 0.00 | 35 | 1017.1 |
| 20260831162608 | 95 | 215 | 5.0 | 9.0 | 0.00 | 0.00 | 0.00 | 35 | 1017.4 |
| 20260831162106 | 95 | 258 | 8.0 | 9.0 | 0.00 | 0.00 | 0.00 | 35 | 1017.2 |
| 20260831161602 | 95 | 286 | 3.0 | 9.0 | 0.00 | 0.00 | 0.00 | 36 | 1017.3 |
| 20260831161058 | 94 | 264 | 9.0 | 11.0 | 0.00 | 0.00 | 0.00 | 35 | 1017.1 |
| 20260831160557 | 94 | 197 | 2.0 | 5.0 | 0.00 | 0.00 | 0.00 | 37 | 1017.5 |
| 20260831160053 | 94 | 264 | 2.0 | 6.0 | 0.00 | 0.00 | 0.00 | 37 | 1017.2 |
| 20260831155553 | 93 | 204 | 3.0 | 6.0 | 0.00 | 0.00 | 0.00 | 37 | 1017.3 |
| 20260831155048 | 93 | 241 | 3.0 | 6.0 | 0.00 | 0.00 | 0.00 | 38 | 1017.4 |
| 20260831154544 | 92 | 242 | 8.0 | 10.0 | 0.00 | 0.00 | 0.00 | 38 | 1017.4 |
| 20260831154044 | 91 | 209 | 3.0 | 7.0 | 0.00 | 0.00 | 0.00 | 39 | 1017.3 |
| 20260831153543 | 91 | 221 | 2.0 | 9.0 | 0.00 | 0.00 | 0.00 | 39 | 1017.3 |
| 20260831153041 | 91 | 200 | 2.0 | 7.0 | 0.00 | 0.00 | 0.00 | 40 | 1017.2 |
| 20260831152536 | 91 | 220 | 3.0 | 3.0 | 0.00 | 0.00 | 0.00 | 40 | 1017.4 |
| 20260831152032 | 90 | 242 | 5.0 | 10.0 | 0.00 | 0.00 | 0.00 | 40 | 1017.4 |
| 20260831151531 | 90 | 229 | 3.0 | 9.0 | 0.00 | 0.00 | 0.00 | 40 | 1017.4 |
| 20260831151031 | 90 | 8 | 2.0 | 6.0 | 0.00 | 0.00 | 0.00 | 41 | 1017.5 |
| 20260831150526 | 89 | 183 | 4.0 | 8.0 | 0.00 | 0.00 | 0.00 | 41 | 1017.3 |
| 20260831150022 | 89 | 314 | 2.0 | 10.0 | 0.00 | 0.00 | 0.00 | 41 | 1017.4 |
| 20260831145516 | 89 | 148 | 2.0 | 5.0 | 0.00 | 0.00 | 0.00 | 41 | 1017.5 |
| 20260831145013 | 88 | 194 | 0.0 | 4.0 | 0.00 | 0.00 | 0.00 | 42 | 1017.5 |
| 20260831144508 | 88 | 359 | 2.0 | 9.0 | 0.00 | 0.00 | 0.00 | 42 | 1017.7 |
| 20260831144003 | 87 | 82 | 0.0 | 4.0 | 0.00 | 0.00 | 0.00 | 43 | 1017.8 |
| 20260831143457 | 86 | 218 | 3.0 | 4.0 | 0.00 | 0.00 | 0.00 | 44 | 1017.6 |
| 20260831142953 | 85 | 48 | 2.0 | 7.0 | 0.00 | 0.00 | 0.00 | 46 | 1017.4 |
| 20260831142449 | 84 | 258 | 2.0 | 5.0 | 0.00 | 0.00 | 0.00 | 47 | 1017.5 |
| 20260831141944 | 83 | 194 | 3.0 | 8.0 | 0.00 | 0.00 | 0.00 | 47 | 1017.5 |
| 20260831141443 | 83 | 250 | 2.0 | 6.0 | 0.00 | 0.00 | 0.00 | 48 | 1017.5 |
| 20260831140939 | 83 | 252 | 2.0 | 5.0 | 0.00 | 0.00 | 0.00 | 49 | 1017.6 |
| 20260831140433 | 82 | 271 | 3.0 | 3.0 | 0.00 | 0.00 | 0.00 | 49 | 1017.5 |
| 20260831135932 | 82 | 207 | 2.0 | 4.0 | 0.00 | 0.00 | 0.00 | 49 | 1017.6 |
| 20260831135431 | 81 | 214 | 0.0 | 4.0 | 0.00 | 0.00 | 0.00 | 50 | 1017.3 |
| 20260831134926 | 81 | 224 | 2.0 | 3.0 | 0.00 | 0.00 | 0.00 | 51 | 1017.5 |
| 20260831134423 | 81 | 259 | 1.0 | 3.0 | 0.00 | 0.00 | 0.00 | 51 | 1017.4 |
| 20260831133922 | 80 | 256 | 0.0 | 5.0 | 0.00 | 0.00 | 0.00 | 52 | 1017.5 |
| 20260831133417 | 79 | 247 | 0.0 | 4.0 | 0.00 | 0.00 | 0.00 | 52 | 1017.3 |
| 20260831132917 | 79 | 200 | 1.0 | 2.0 | 0.00 | 0.00 | 0.00 | 53 | 1017.4 |
| 20260831132413 | 78 | 187 | 1.0 | 3.0 | 0.00 | 0.00 | 0.00 | 54 | 1017.5 |
| 20260831131912 | 78 | 239 | 1.0 | 4.0 | 0.00 | 0.00 | 0.00 | 55 | 1017.2 |
| 20260831131408 | 77 | 255 | 0.0 | 2.0 | 0.00 | 0.00 | 0.00 | 56 | 1017.2 |
| 20260831130903 | 77 | 299 | 0.0 | 4.0 | 0.00 | 0.00 | 0.00 | 56 | 1017.0 |
| 20260831130359 | 76 | 296 | 0.0 | 2.0 | 0.00 | 0.00 | 0.00 | 58 | 1016.7 |
| 20260831125857 | 76 | 331 | 1.0 | 2.0 | 0.00 | 0.00 | 0.00 | 58 | 1017.1 |
| 20260831125353 | 75 | 37 | 1.0 | 2.0 | 0.00 | 0.00 | 0.00 | 59 | 1017.0 |
| 20260831124848 | 75 | 205 | 0.0 | 2.0 | 0.00 | 0.00 | 0.00 | 60 | 1017.1 |
| 20260831124345 | 74 | 38 | 0.0 | 2.0 | 0.00 | 0.00 | 0.00 | 60 | 1016.8 |
| 20260831123844 | 74 | 1 | 0.0 | 2.0 | 0.00 | 0.00 | 0.00 | 61 | 1017.0 |
| 20260831123343 | 73 | 334 | 1.0 | 2.0 | 0.00 | 0.00 | 0.00 | 62 | 1016.7 |
| 20260831122838 | 73 | 321 | 0.0 | 1.0 | 0.00 | 0.00 | 0.00 | 62 | 1016.7 |
| 20260831122334 | 73 | 343 | 0.0 | 0.0 | 0.00 | 0.00 | 0.00 | 62 | 1016.8 |
| 20260831121834 | 73 | 242 | 0.0 | 1.0 | 0.00 | 0.00 | 0.00 | 62 | 1016.7 |
| 20260831121330 | 73 | 305 | 0.0 | 1.0 | 0.00 | 0.00 | 0.00 | 62 | 1016.5 |
| 20260831120826 | 73 | 312 | 1.0 | 1.0 | 0.00 | 0.00 | 0.00 | 62 | 1016.6 |
| 20260831120320 | 73 | 343 | 0.0 | 2.0 | 0.00 | 0.00 | 0.00 | 62 | 1016.5 |
| 20260831115815 | 73 | 62 | 0.0 | 1.0 | 0.00 | 0.00 | 0.00 | 61 | 1016.6 |
| 20260831115312 | 73 | 37 | 0.0 | 0.0 | 0.00 | 0.00 | 0.00 | 61 | 1016.7 |
| 20260831114810 | 73 | 335 | 1.0 | 1.0 | 0.00 | 0.00 | 0.00 | 61 | 1016.8 |
| 20260831114309 | 73 | 333 | 0.0 | 2.0 | 0.00 | 0.00 | 0.00 | 61 | 1016.5 |
| 20260831113806 | 73 | 341 | 1.0 | 2.0 | 0.00 | 0.00 | 0.00 | 61 | 1016.7 |
| 20260831113300 | 73 | 287 | 0.0 | 1.0 | 0.00 | 0.00 | 0.00 | 61 | 1016.5 |
| 20260831112759 | 74 | 327 | 0.0 | 0.0 | 0.00 | 0.00 | 0.00 | 61 | 1016.5 |
| 20260831112255 | 74 | 339 | 0.0 | 0.0 | 0.00 | 0.00 | 0.00 | 61 | 1016.4 |
| 20260831111750 | 74 | 309 | 0.0 | 0.0 | 0.00 | 0.00 | 0.00 | 60 | 1016.4 |
| 20260831111246 | 74 | 309 | 0.0 | 0.0 | 0.00 | 0.00 | 0.00 | 60 | 1016.6 |
| 20260831110742 | 75 | 307 | 0.0 | 1.0 | 0.00 | 0.00 | 0.00 | 59 | 1016.5 |
| 20260831110237 | 75 | 306 | 1.0 | 2.0 | 0.00 | 0.00 | 0.00 | 58 | 1016.5 |
| 20260831105735 | 76 | 266 | 0.0 | 1.0 | 0.00 | 0.00 | 0.00 | 57 | 1016.5 |
| 20260831105231 | 76 | 337 | 1.0 | 1.0 | 0.00 | 0.00 | 0.00 | 57 | 1016.3 |
| 20260831104726 | 76 | 293 | 0.0 | 2.0 | 0.00 | 0.00 | 0.00 | 56 | 1016.2 |
| 20260831104223 | 76 | 255 | 1.0 | 2.0 | 0.00 | 0.00 | 0.00 | 56 | 1016.3 |
| 20260831103722 | 76 | 273 | 2.0 | 2.0 | 0.00 | 0.00 | 0.00 | 56 | 1016.3 |
| 20260831103218 | 76 | 231 | 1.0 | 2.0 | 0.00 | 0.00 | 0.00 | 56 | 1015.8 |
| 20260831102718 | 76 | 217 | 2.0 | 3.0 | 0.00 | 0.00 | 0.00 | 56 | 1016.0 |
| 20260831102213 | 76 | 210 | 2.0 | 2.0 | 0.00 | 0.00 | 0.00 | 56 | 1016.0 |
| 20260831101708 | 76 | 216 | 1.0 | 3.0 | 0.00 | 0.00 | 0.00 | 56 | 1016.3 |
| 20260831101204 | 76 | 312 | 0.0 | 4.0 | 0.00 | 0.00 | 0.00 | 57 | 1016.0 |
| 20260831100700 | 76 | 201 | 0.0 | 3.0 | 0.00 | 0.00 | 0.00 | 57 | 1015.9 |
| 20260831100156 | 76 | 255 | 1.0 | 3.0 | 0.00 | 0.00 | 0.00 | 56 | 1016.0 |
| 20260831095653 | 77 | 264 | 0.0 | 3.0 | 0.00 | 0.00 | 0.00 | 56 | 1016.0 |
| 20260831095149 | 77 | 281 | 1.0 | 2.0 | 0.00 | 0.00 | 0.00 | 56 | 1015.8 |
| 20260831094644 | 77 | 275 | 2.0 | 3.0 | 0.00 | 0.00 | 0.00 | 56 | 1015.9 |
| 20260831094140 | 77 | 187 | 0.0 | 4.0 | 0.00 | 0.00 | 0.00 | 56 | 1015.6 |
| 20260831093635 | 77 | 237 | 0.0 | 4.0 | 0.00 | 0.00 | 0.00 | 55 | 1015.5 |
| 20260831093131 | 77 | 151 | 0.0 | 3.0 | 0.00 | 0.00 | 0.00 | 55 | 1015.7 |
| 20260831092627 | 78 | 252 | 1.0 | 4.0 | 0.00 | 0.00 | 0.00 | 55 | 1015.6 |
| 20260831092123 | 78 | 224 | 0.0 | 2.0 | 0.00 | 0.00 | 0.00 | 55 | 1015.4 |
| 20260831091622 | 78 | 276 | 1.0 | 4.0 | 0.00 | 0.00 | 0.00 | 55 | 1015.5 |
| 20260831091118 | 78 | 22 | 0.0 | 2.0 | 0.00 | 0.00 | 0.00 | 55 | 1015.5 |
| 20260831090613 | 78 | 250 | 1.0 | 2.0 | 0.00 | 0.00 | 0.00 | 54 | 1015.3 |
| 20260831090109 | 78 | 255 | 0.0 | 3.0 | 0.00 | 0.00 | 0.00 | 54 | 1015.7 |
| 20260831085604 | 79 | 41 | 1.0 | 3.0 | 0.00 | 0.00 | 0.00 | 54 | 1015.3 |
| 20260831085059 | 79 | 243 | 2.0 | 4.0 | 0.00 | 0.00 | 0.00 | 53 | 1015.5 |
| 20260831084555 | 79 | 215 | 2.0 | 3.0 | 0.00 | 0.00 | 0.00 | 53 | 1015.6 |
| 20260831084051 | 79 | 197 | 4.0 | 4.0 | 0.00 | 0.00 | 0.00 | 52 | 1015.3 |
| 20260831083547 | 79 | 265 | 2.0 | 4.0 | 0.00 | 0.00 | 0.00 | 52 | 1015.4 |
| 20260831083042 | 79 | 222 | 0.0 | 4.0 | 0.00 | 0.00 | 0.00 | 52 | 1015.4 |
| 20260831082541 | 79 | 258 | 1.0 | 3.0 | 0.00 | 0.00 | 0.00 | 52 | 1015.2 |
| 20260831082037 | 80 | 250 | 2.0 | 3.0 | 0.00 | 0.00 | 0.00 | 52 | 1015.1 |
| 20260831081532 | 80 | 196 | 1.0 | 5.0 | 0.00 | 0.00 | 0.00 | 52 | 1015.1 |
| 20260831081029 | 80 | 242 | 1.0 | 3.0 | 0.00 | 0.00 | 0.00 | 51 | 1015.1 |
| 20260831080528 | 80 | 222 | 1.0 | 3.0 | 0.00 | 0.00 | 0.00 | 51 | 1015.0 |
| 20260831080024 | 80 | 192 | 1.0 | 4.0 | 0.00 | 0.00 | 0.00 | 51 | 1015.0 |
| 20260831075519 | 81 | 281 | 0.0 | 2.0 | 0.00 | 0.00 | 0.00 | 50 | 1015.0 |
| 20260831075015 | 81 | 294 | 2.0 | 2.0 | 0.00 | 0.00 | 0.00 | 50 | 1014.9 |
| 20260831074514 | 81 | 199 | 0.0 | 2.0 | 0.00 | 0.00 | 0.00 | 50 | 1014.9 |
| 20260831074014 | 81 | 315 | 1.0 | 2.0 | 0.00 | 0.00 | 0.00 | 49 | 1014.7 |
| 20260831073509 | 81 | 243 | 2.0 | 3.0 | 0.00 | 0.00 | 0.00 | 49 | 1014.9 |
| 20260831073008 | 81 | 223 | 0.0 | 3.0 | 0.00 | 0.00 | 0.00 | 49 | 1015.0 |
| 20260831072503 | 82 | 110 | 0.0 | 4.0 | 0.00 | 0.00 | 0.00 | 49 | 1015.0 |
| 20260831072000 | 82 | 343 | 0.0 | 3.0 | 0.00 | 0.00 | 0.00 | 49 | 1014.8 |
| 20260831071458 | 82 | 353 | 1.0 | 2.0 | 0.00 | 0.00 | 0.00 | 49 | 1015.2 |
| 20260831070954 | 82 | 255 | 0.0 | 4.0 | 0.00 | 0.00 | 0.00 | 49 | 1015.2 |
| 20260831070452 | 82 | 323 | 1.0 | 2.0 | 0.00 | 0.00 | 0.00 | 48 | 1015.2 |
| 20260831065952 | 82 | 153 | 1.0 | 4.0 | 0.00 | 0.00 | 0.00 | 48 | 1015.2 |
| 20260831065450 | 82 | 301 | 2.0 | 3.0 | 0.00 | 0.00 | 0.00 | 48 | 1015.1 |
| 20260831064945 | 83 | 281 | 2.0 | 2.0 | 0.00 | 0.00 | 0.00 | 47 | 1015.0 |
| 20260831064440 | 83 | 303 | 2.0 | 3.0 | 0.00 | 0.00 | 0.00 | 47 | 1015.3 |
| 20260831063937 | 83 | 253 | 2.0 | 4.0 | 0.00 | 0.00 | 0.00 | 46 | 1015.1 |
| 20260831063432 | 84 | 180 | 0.0 | 4.0 | 0.00 | 0.00 | 0.00 | 46 | 1015.4 |
| 20260831062931 | 84 | 205 | 1.0 | 3.0 | 0.00 | 0.00 | 0.00 | 45 | 1015.3 |
| 20260831062429 | 84 | 186 | 2.0 | 5.0 | 0.00 | 0.00 | 0.00 | 45 | 1015.3 |
| 20260831061926 | 85 | 231 | 2.0 | 4.0 | 0.00 | 0.00 | 0.00 | 45 | 1015.2 |
| 20260831061424 | 85 | 213 | 2.0 | 4.0 | 0.00 | 0.00 | 0.00 | 44 | 1015.2 |
| 20260831060921 | 85 | 247 | 0.0 | 4.0 | 0.00 | 0.00 | 0.00 | 44 | 1015.0 |
| 20260831060421 | 85 | 204 | 2.0 | 4.0 | 0.00 | 0.00 | 0.00 | 43 | 1015.0 |
| 20260831055921 | 85 | 306 | 1.0 | 3.0 | 0.00 | 0.00 | 0.00 | 43 | 1014.8 |
| 20260831055416 | 86 | 227 | 2.0 | 5.0 | 0.00 | 0.00 | 0.00 | 43 | 1014.9 |
| 20260831054911 | 86 | 194 | 2.0 | 3.0 | 0.00 | 0.00 | 0.00 | 43 | 1014.7 |
| 20260831054406 | 86 | 152 | 4.0 | 4.0 | 0.00 | 0.00 | 0.00 | 42 | 1014.2 |
| 20260831053905 | 86 | 175 | 1.0 | 5.0 | 0.00 | 0.00 | 0.00 | 42 | 1014.1 |
| 20260831053403 | 87 | 48 | 2.0 | 4.0 | 0.00 | 0.00 | 0.00 | 42 | 1014.0 |
| 20260831052859 | 87 | 358 | 2.0 | 4.0 | 0.00 | 0.00 | 0.00 | 41 | 1013.8 |
| 20260831052358 | 87 | 43 | 0.0 | 8.0 | 0.00 | 0.00 | 0.00 | 41 | 1013.8 |
| 20260831051856 | 87 | 151 | 3.0 | 5.0 | 0.00 | 0.00 | 0.00 | 41 | 1013.7 |
| 20260831051355 | 87 | 268 | 1.0 | 4.0 | 0.00 | 0.00 | 0.00 | 41 | 1013.8 |
| 20260831050850 | 87 | 332 | 1.0 | 2.0 | 0.00 | 0.00 | 0.00 | 41 | 1013.8 |
| 20260831050349 | 87 | 326 | 0.0 | 4.0 | 0.00 | 0.00 | 0.00 | 40 | 1013.5 |
| 20260831045844 | 87 | 321 | 0.0 | 3.0 | 0.00 | 0.00 | 0.00 | 40 | 1013.6 |
| 20260831045343 | 87 | 193 | 2.0 | 4.0 | 0.00 | 0.00 | 0.00 | 40 | 1013.6 |
| 20260831044838 | 87 | 277 | 2.0 | 5.0 | 0.00 | 0.00 | 0.00 | 40 | 1013.6 |
| 20260831044338 | 87 | 22 | 2.0 | 2.0 | 0.00 | 0.00 | 0.00 | 40 | 1013.8 |
| 20260831043835 | 87 | 358 | 2.0 | 3.0 | 0.00 | 0.00 | 0.00 | 40 | 1013.7 |
| 20260831043334 | 87 | 110 | 1.0 | 3.0 | 0.00 | 0.00 | 0.00 | 40 | 1013.5 |
| 20260831042829 | 88 | 64 | 0.0 | 2.0 | 0.00 | 0.00 | 0.00 | 40 | 1013.4 |
| 20260831042329 | 88 | 285 | 3.0 | 3.0 | 0.00 | 0.00 | 0.00 | 40 | 1013.5 |
| 20260831041824 | 88 | 349 | 2.0 | 3.0 | 0.00 | 0.00 | 0.00 | 40 | 1013.5 |
| 20260831041323 | 88 | 308 | 0.0 | 3.0 | 0.00 | 0.00 | 0.00 | 40 | 1013.4 |
| 20260831040818 | 88 | 108 | 0.0 | 2.0 | 0.00 | 0.00 | 0.00 | 39 | 1013.5 |
| 20260831040318 | 88 | 143 | 2.0 | 4.0 | 0.00 | 0.00 | 0.00 | 39 | 1013.1 |
| 20260831035816 | 88 | 18 | 2.0 | 3.0 | 0.00 | 0.00 | 0.00 | 39 | 1013.4 |
| 20260831035315 | 88 | 26 | 1.0 | 4.0 | 0.00 | 0.00 | 0.00 | 39 | 1013.3 |
| 20260831034810 | 89 | 19 | 0.0 | 3.0 | 0.00 | 0.00 | 0.00 | 39 | 1013.4 |
| 20260831034305 | 89 | 47 | 1.0 | 3.0 | 0.00 | 0.00 | 0.00 | 39 | 1013.4 |
| 20260831033800 | 89 | 95 | 0.0 | 4.0 | 0.00 | 0.00 | 0.00 | 39 | 1013.3 |
| 20260831033300 | 89 | 47 | 1.0 | 2.0 | 0.00 | 0.00 | 0.00 | 39 | 1013.3 |
| 20260831032756 | 89 | 277 | 0.0 | 3.0 | 0.00 | 0.00 | 0.00 | 38 | 1013.4 |
| 20260831032250 | 89 | 133 | 2.0 | 2.0 | 0.00 | 0.00 | 0.00 | 38 | 1013.4 |